ATLAS 5 CENTAUR DEB, 44039

Orbit data source: Space-Track

ATLAS 5 CENTAUR DEB, 44039 is space debris in HEO originally from a launch on Wed, 17 Sep 2014 UTC launched from the Air Force Eastern Test Range (AFETR). Debris objects in space refer to the collection of defunct objects orbiting the Earth. Examples of debris include non-operational satellites, rocket bodies, and fragments generated from explosions, collisions, or faulty payload assembly.

Loading next visibility...
Identifier
44039, 2014-055BZ
Orbit
HEO
Country
Flag of USUS
Related business
Flag of USUnited Launch Alliance/Lockheed Martin (US)
Manufacturer
Unknown
Mission
Spacecraft
Bus & Motor
Unknown
Mass
Unknown
Launch date (UTC)
2014-09-17 (11 years ago)
Launch vehicle
Unknown
Launch site
Air Force Eastern Test Range (AFETR)
Object type
Payload
Rocket body
Debris
Shape & HBR
Unknown shape, 1.1 m
Radar Cross Section
Small (<0.1 m²)

Expand to show TLE details & history
Last TLE update: 1 day ago

TLE from 1 day ago
0 ATLAS 5 CENTAUR DEB
1 44039U 14055BZ  26061.22150787 -.00000111  00000-0  00000-0 0  9996
2 44039  20.4340 137.3694 4836872 177.9910 185.0302  1.89433068 50455
Epoch: 2026-03-02T05:18Z
TLE epoch observation values (Epoch: 2026-03-02T05:18:58.279Z)
Latitude
0.00008°
Longitude
-102.37109°
Altitude
34,551.407 km
Speed
2.243 km/s
True Right ascension
09h 09m 33s
True Declination
0° 00' 00"
Sunlit
Object was in daylight at epoch
Visualization orbit readout
Latitude
Unknown
Longitude
Unknown
Altitude
Unknown
Speed
Unknown
Apparent Right ascension
Unknown
Apparent Declination
Unknown
Sunlit
N/A
Visualization observer readout
Local Sidereal Time
12:47:22
Azimuth
Unknown
Elevation
Unknown
Doppler factor
Unknown
Orbital elements
Apogee altitude
34,560.925 km
Perigee altitude
7,868.371 km
Semi-major axis
27,592.785 km
Eccentricity
0.48369
Inclination
20.434°
RAAN
137.3694°
Arg. of periapsis
177.991°
True anomaly
182.00075°
Mean anomaly
185.0302°
Eccentric anomaly
183.39098°
Mean motion
0.47353 °/min
Orbital period
760.24 mins
BSTAR
0
Loading maneuver chart data...
Computing Atmospheric mass density...

Documentation

Showing up to 5 results
|